User: anonymous   Login
Location: *
(48.8780°N, 19.2358°E)
Time: 04:41:21
(UTC+00:00)
Language:

Cosmos 2278 Rocket - Orbit

View from above orbital plane
View from above orbital plane
View from above satellite
View from above satellite

Ground track
Ground track

The orbit data is extracted from the following two-line orbital elements,

1 23088U 94023B   19349.42868501 -.00000457  00000-0 -21280-3 0  9993
2 23088  70.9971 169.4734 0003321 198.7209 161.3792 14.14679585324418
Epoch (UTC): 15 December 2019 10:17:18
Eccentricity: 0.0003321
inclination: 70.9971°
perigee height: 841 km
apogee height: 846 km
right ascension of ascending node: 169.4734°
argument of perigee: 198.7209°
revolutions per day: 14.14679585
mean anomaly at epoch: 161.3792°
orbit number at epoch: 32441

The dashed part of the orbit path shows where the satellite is in the earth's shadow,  

DLR